Location: *
(46.1006°N, 1.8394°E)
Time: 13:49:20
(UTC+00:00)

Spot 2 Rocket - Pass Details

Date: 20 September 2019
Orbit: 758 x 772 km, 98.6° (Epoch: 22 October)

Event Time Altitude Azimuth Distance (km) Brightness Sun altitude
Exits shadow 20:49:00 67° 317° (NW) 822 3.7 -29.0°
Drops below altitude 10° 20:53:28 10° 343° (NNW) 2,298 6.6 -29.6°
Sets 20:55:47 0° 345° (NNW) 3,228 7.5 -29.9°
